Simultaneous Nadir Overpasses (SNOs) Predictions

Prediction of SNOs between AQUA and METOP-B Satellite Orbit:

Table of predicted SNOs for the next 14.0 days since TLE Epoch: 3/28/2015
Index Date (AQUA) Time (AQUA) Lat,Lon (AQUA) SZA (AQUA ) Date (METOP-B) Time (METOP-B) Lat,Lon (METOP-B) SZA (METOP-B ) Distance(km) Time Diff (sec)
1 03/29/2015 01:55:35 -73.13, -33.03 110.09 03/29/2015 01:54:28 -73.09, -35.57 110.02 82.30 67
2 03/29/2015 02:45:15 73.77, 133.25 70.58 03/29/2015 02:44:54 73.77, 133.30 70.58 1.55 21
3 03/29/2015 03:34:42 -73.85, -59.27 109.35 03/29/2015 03:35:35 -73.82, -59.25 109.39 3.57 53
4 03/31/2015 21:29:57 -73.38, 32.88 110.92 03/31/2015 21:28:47 -73.33, 31.36 110.91 49.05 70
5 03/31/2015 22:19:32 73.77,-160.31 69.48 03/31/2015 22:19:18 73.75,-160.34 69.46 2.77 14
6 03/31/2015 23:08:59 -73.84, 7.17 110.46 03/31/2015 23:09:58 -73.85, 7.24 110.46 2.39 59
7 04/03/2015 17:04:17 -73.65, 98.76 111.73 04/03/2015 17:03:04 -73.60, 98.39 111.75 12.57 73
8 04/03/2015 17:53:47 73.78, -93.90 68.40 04/03/2015 17:53:40 73.77, -93.88 68.40 1.32 7
9 04/03/2015 18:43:14 -73.85, 73.60 111.54 04/03/2015 18:44:21 -73.83, 73.59 111.57 2.01 67
10 04/06/2015 12:38:33 -73.71, 165.06 112.74 04/06/2015 12:37:25 -73.72, 165.07 112.72 0.80 68
11 04/06/2015 13:28:02 73.80, -27.50 67.35 04/06/2015 13:28:03 73.78, -27.45 67.33 2.70 1
12 04/06/2015 14:17:30 -73.92, 139.89 112.54 04/06/2015 14:18:43 -73.90, 140.15 112.58 8.55 73
13 04/09/2015 08:12:47 -73.74,-128.55 113.77 04/09/2015 08:11:48 -73.73,-128.51 113.77 1.89 59
14 04/09/2015 09:02:15 73.78, 38.99 66.27 04/09/2015 09:02:26 73.79, 38.97 66.27 0.91 11




NCC Satellite Simultaneous Nadir Overpasses (SNOs) Prediction Service
